Time,TemperatureF,DewpointF,PressureIn,WindDirection,WindDirectionDegrees,WindSpeedMPH,WindSpeedGustMPH,Humidity,HourlyPrecipIn,Conditions,Clouds,dailyrainin,SoftwareType,DateUTC
2013-05-17 00:00:00,50.5,41.8,29.94,WNW,292,2.0,2.0,72,0.00,,,0.00,Wunderground v.1.15,2013-05-17 07:00:00,
2013-05-17 00:05:00,50.4,41.7,29.94,WNW,292,2.0,2.0,72,0.00,,,0.00,Wunderground v.1.15,2013-05-17 07:05:00,
2013-05-17 00:10:00,50.4,42.1,29.94,WNW,292,2.0,3.0,73,0.00,,,0.00,Wunderground v.1.15,2013-05-17 07:10:00,
2013-05-17 00:20:00,50.2,41.5,29.94,WNW,292,1.0,1.0,72,0.00,,,0.00,Wunderground v.1.15,2013-05-17 07:20:00,
2013-05-17 00:25:00,50.2,41.5,29.94,WNW,292,2.0,2.0,72,0.00,,,0.00,Wunderground v.1.15,2013-05-17 07:25:00,
2013-05-17 00:30:00,50.1,41.4,29.94,WNW,292,2.0,2.0,72,0.00,,,0.00,Wunderground v.1.15,2013-05-17 07:30:00,
2013-05-17 00:40:00,49.5,41.2,29.94,WNW,292,0.0,0.0,73,0.00,,,0.00,Wunderground v.1.15,2013-05-17 07:40:00,
2013-05-17 00:45:00,49.4,41.1,29.94,WNW,292,0.0,0.0,73,0.00,,,0.00,Wunderground v.1.15,2013-05-17 07:45:00,
2013-05-17 00:50:00,49.2,40.9,29.94,WNW,292,0.0,1.0,73,0.00,,,0.00,Wunderground v.1.15,2013-05-17 07:50:00,
2013-05-17 01:00:00,48.6,40.7,29.94,WNW,292,1.0,1.0,74,0.00,,,0.00,Wunderground v.1.15,2013-05-17 08:00:00,
2013-05-17 01:05:00,48.2,40.3,29.94,WNW,292,1.0,1.0,74,0.00,,,0.00,Wunderground v.1.15,2013-05-17 08:05:00,
2013-05-17 01:10:00,48.0,40.5,29.94,WNW,292,1.0,1.0,75,0.00,,,0.00,Wunderground v.1.15,2013-05-17 08:10:00,
2013-05-17 01:20:00,47.7,40.2,29.94,WNW,292,0.0,0.0,75,0.00,,,0.00,Wunderground v.1.15,2013-05-17 08:20:00,
2013-05-17 01:25:00,47.6,40.4,29.94,WNW,292,0.0,0.0,76,0.00,,,0.00,Wunderground v.1.15,2013-05-17 08:25:00,
2013-05-17 01:35:00,47.3,40.1,29.95,WNW,292,0.0,0.0,76,0.00,,,0.00,Wunderground v.1.15,2013-05-17 08:35:00,
2013-05-17 01:40:00,47.1,40.3,29.95,WNW,292,0.0,0.0,77,0.00,,,0.00,Wunderground v.1.15,2013-05-17 08:40:00,
2013-05-17 01:50:00,46.8,40.0,29.94,WNW,292,0.0,0.0,77,0.00,,,0.00,Wunderground v.1.15,2013-05-17 08:50:00,
2013-05-17 01:55:00,46.7,40.2,29.94,WNW,292,0.0,2.0,78,0.00,,,0.00,Wunderground v.1.15,2013-05-17 08:55:00,
2013-05-17 02:00:00,46.5,40.0,29.94,WNW,292,0.0,0.0,78,0.00,,,0.00,Wunderground v.1.15,2013-05-17 09:00:00,
2013-05-17 02:10:00,46.2,40.0,29.94,WNW,292,1.0,1.0,79,0.00,,,0.00,Wunderground v.1.15,2013-05-17 09:10:00,
2013-05-17 02:15:00,46.0,39.9,29.94,WNW,292,1.0,1.0,79,0.00,,,0.00,Wunderground v.1.15,2013-05-17 09:15:00,
2013-05-17 02:25:00,45.7,39.6,29.94,WNW,292,0.0,0.0,79,0.00,,,0.00,Wunderground v.1.15,2013-05-17 09:25:00,
2013-05-17 02:30:00,45.5,39.4,29.94,WNW,292,0.0,0.0,79,0.00,,,0.00,Wunderground v.1.15,2013-05-17 09:30:00,
2013-05-17 02:35:00,45.5,39.7,29.94,WNW,292,1.0,2.0,80,0.00,,,0.00,Wunderground v.1.15,2013-05-17 09:35:00,
2013-05-17 02:40:00,45.4,39.6,29.94,WNW,292,2.0,4.0,80,0.00,,,0.00,Wunderground v.1.15,2013-05-17 09:40:00,
2013-05-17 02:50:00,45.2,39.4,29.94,WNW,292,3.0,5.0,80,0.00,,,0.00,Wunderground v.1.15,2013-05-17 09:50:00,
2013-05-17 02:55:00,45.4,39.6,29.94,West,265,3.0,5.0,80,0.00,,,0.00,Wunderground v.1.15,2013-05-17 09:55:00,
2013-05-17 03:00:00,45.1,39.0,29.94,WNW,302,3.0,3.0,79,0.00,,,0.00,Wunderground v.1.15,2013-05-17 10:00:00,
2013-05-17 03:10:00,45.1,39.6,29.94,WNW,288,4.0,4.0,81,0.00,,,0.00,Wunderground v.1.15,2013-05-17 10:10:00,
2013-05-17 03:20:00,44.8,39.3,29.94,NW,311,4.0,4.0,81,0.00,,,0.00,Wunderground v.1.15,2013-05-17 10:20:00,
2013-05-17 03:25:00,44.8,39.3,29.94,WNW,292,4.0,4.0,81,0.00,,,0.00,Wunderground v.1.15,2013-05-17 10:25:00,
2013-05-17 03:30:00,44.8,39.6,29.94,WNW,300,4.0,4.0,82,0.00,,,0.00,Wunderground v.1.15,2013-05-17 10:30:00,
2013-05-17 03:40:00,44.6,39.1,29.94,NW,310,3.0,3.0,81,0.00,,,0.00,Wunderground v.1.15,2013-05-17 10:40:00,
2013-05-17 03:45:00,44.5,39.3,29.95,NW,310,2.0,3.0,82,0.00,,,0.00,Wunderground v.1.15,2013-05-17 10:45:00,
2013-05-17 03:50:00,44.5,39.3,29.95,NW,310,2.0,3.0,82,0.00,,,0.00,Wunderground v.1.15,2013-05-17 10:50:00,
2013-05-17 04:00:00,44.3,39.2,29.95,NW,305,3.0,3.0,82,0.00,,,0.00,Wunderground v.1.15,2013-05-17 11:00:00,
2013-05-17 04:05:00,44.1,39.0,29.95,WNW,290,3.0,3.0,82,0.00,,,0.00,Wunderground v.1.15,2013-05-17 11:05:00,
2013-05-17 04:15:00,43.8,39.0,29.95,WNW,300,4.0,4.0,83,0.00,,,0.00,Wunderground v.1.15,2013-05-17 11:15:00,
2013-05-17 04:20:00,43.8,38.7,29.95,West,281,4.0,5.0,82,0.00,,,0.00,Wunderground v.1.15,2013-05-17 11:20:00,
2013-05-17 04:25:00,43.5,38.7,29.95,WNW,283,4.0,5.0,83,0.00,,,0.00,Wunderground v.1.15,2013-05-17 11:25:00,
2013-05-17 04:35:00,43.1,38.6,29.96,WNW,296,4.0,4.0,84,0.00,,,0.00,Wunderground v.1.15,2013-05-17 11:35:00,
2013-05-17 04:40:00,42.9,38.4,29.96,WNW,288,4.0,4.0,84,0.00,,,0.00,Wunderground v.1.15,2013-05-17 11:40:00,
2013-05-17 04:50:00,42.9,38.4,29.96,WNW,287,4.0,4.0,84,0.00,,,0.00,Wunderground v.1.15,2013-05-17 11:50:00,
2013-05-17 04:55:00,42.8,38.0,29.96,WNW,291,4.0,4.0,83,0.00,,,0.00,Wunderground v.1.15,2013-05-17 11:55:00,
2013-05-17 05:00:00,42.5,38.0,29.96,WNW,302,4.0,4.0,84,0.00,,,0.00,Wunderground v.1.15,2013-05-17 12:00:00,
2013-05-17 05:05:00,42.3,37.8,29.96,NW,304,5.0,5.0,84,0.00,,,0.00,Wunderground v.1.15,2013-05-17 12:05:00,
2013-05-17 05:10:00,42.3,37.8,29.96,WNW,300,5.0,5.0,84,0.00,,,0.00,Wunderground v.1.15,2013-05-17 12:10:00,
2013-05-17 05:20:00,41.9,37.7,29.96,WNW,290,4.0,5.0,85,0.00,,,0.00,Wunderground v.1.15,2013-05-17 12:20:00,
2013-05-17 05:25:00,41.9,37.4,29.96,WNW,296,4.0,5.0,84,0.00,,,0.00,Wunderground v.1.15,2013-05-17 12:25:00,
2013-05-17 05:30:00,41.6,37.4,29.96,WNW,302,4.0,6.0,85,0.00,,,0.00,Wunderground v.1.15,2013-05-17 12:30:00,
2013-05-17 05:40:00,41.3,37.1,29.96,NW,305,3.0,3.0,85,0.00,,,0.00,Wunderground v.1.15,2013-05-17 12:40:00,
2013-05-17 05:45:00,41.3,37.4,29.96,NW,305,2.0,3.0,86,0.00,,,0.00,Wunderground v.1.15,2013-05-17 12:45:00,
2013-05-17 05:50:00,41.3,37.4,29.96,NW,312,3.0,4.0,86,0.00,,,0.00,Wunderground v.1.15,2013-05-17 12:50:00,
2013-05-17 06:00:00,41.2,37.3,29.96,NW,321,4.0,4.0,86,0.00,,,0.00,Wunderground v.1.15,2013-05-17 13:00:00,
2013-05-17 06:05:00,41.1,37.2,29.96,NW,312,4.0,4.0,86,0.00,,,0.00,Wunderground v.1.15,2013-05-17 13:05:00,
2013-05-17 06:10:00,41.1,37.2,29.96,NW,316,3.0,3.0,86,0.00,,,0.00,Wunderground v.1.15,2013-05-17 13:10:00,
2013-05-17 06:20:00,40.9,37.0,29.97,NW,321,2.0,2.0,86,0.00,,,0.00,Wunderground v.1.15,2013-05-17 13:20:00,
2013-05-17 06:25:00,40.9,37.0,29.97,NW,321,2.0,2.0,86,0.00,,,0.00,Wunderground v.1.15,2013-05-17 13:25:00,
2013-05-17 06:30:00,41.2,37.6,29.98,West,279,2.0,3.0,87,0.00,,,0.00,Wunderground v.1.15,2013-05-17 13:30:00,
2013-05-17 06:35:00,41.6,37.7,29.98,WNW,289,3.0,3.0,86,0.00,,,0.00,Wunderground v.1.15,2013-05-17 13:35:00,
2013-05-17 06:40:00,41.6,37.7,29.98,NW,304,3.0,3.0,86,0.00,,,0.00,Wunderground v.1.15,2013-05-17 13:40:00,
2013-05-17 06:50:00,42.2,38.3,29.98,WNW,293,2.0,2.0,86,0.00,,,0.00,Wunderground v.1.15,2013-05-17 13:50:00,
2013-05-17 06:55:00,42.6,38.4,29.98,WNW,293,2.0,2.0,85,0.00,,,0.00,Wunderground v.1.15,2013-05-17 13:55:00,
2013-05-17 07:00:00,43.2,39.0,29.98,WNW,287,2.0,2.0,85,0.00,,,0.00,Wunderground v.1.15,2013-05-17 14:00:00,
2013-05-17 07:10:00,44.6,39.8,29.98,West,279,1.0,1.0,83,0.00,,,0.00,Wunderground v.1.15,2013-05-17 14:10:00,
2013-05-17 07:15:00,45.2,40.0,29.99,West,279,1.0,2.0,82,0.00,,,0.00,Wunderground v.1.15,2013-05-17 14:15:00,
2013-05-17 07:20:00,45.7,40.2,29.99,West,279,1.0,2.0,81,0.00,,,0.00,Wunderground v.1.15,2013-05-17 14:20:00,
2013-05-17 07:30:00,46.8,40.6,29.99,West,279,1.0,1.0,79,0.00,,,0.00,Wunderground v.1.15,2013-05-17 14:30:00,
2013-05-17 07:35:00,47.7,41.2,29.99,West,279,0.0,1.0,78,0.00,,,0.00,Wunderground v.1.15,2013-05-17 14:35:00,
2013-05-17 07:40:00,48.8,41.6,29.99,West,279,1.0,1.0,76,0.00,,,0.00,Wunderground v.1.15,2013-05-17 14:40:00,
2013-05-17 07:50:00,50.4,42.4,29.99,West,279,0.0,0.0,74,0.00,,,0.00,Wunderground v.1.15,2013-05-17 14:50:00,
2013-05-17 07:55:00,51.4,42.7,29.99,West,279,0.0,0.0,72,0.00,,,0.00,Wunderground v.1.15,2013-05-17 14:55:00,
2013-05-17 08:00:00,52.5,43.0,29.99,WNW,282,0.0,0.0,70,0.00,,,0.00,Wunderground v.1.15,2013-05-17 15:00:00,
2013-05-17 08:10:00,55.0,44.6,29.99,WNW,282,0.0,1.0,68,0.00,,,0.00,Wunderground v.1.15,2013-05-17 15:10:00,
2013-05-17 08:15:00,55.6,43.6,29.99,WNW,282,1.0,3.0,64,0.00,,,0.00,Wunderground v.1.15,2013-05-17 15:15:00,
2013-05-17 08:25:00,56.3,43.4,29.99,West,269,2.0,3.0,62,0.00,,,0.00,Wunderground v.1.15,2013-05-17 15:25:00,
2013-05-17 08:30:00,56.6,43.7,29.99,West,269,2.0,3.0,62,0.00,,,0.00,Wunderground v.1.15,2013-05-17 15:30:00,
2013-05-17 08:35:00,57.0,44.1,29.99,West,270,2.0,3.0,62,0.00,,,0.00,Wunderground v.1.15,2013-05-17 15:35:00,
2013-05-17 08:40:00,57.3,44.4,29.99,West,270,2.0,3.0,62,0.00,,,0.00,Wunderground v.1.15,2013-05-17 15:40:00,
2013-05-17 08:50:00,58.0,44.6,29.99,West,280,2.0,3.0,61,0.00,,,0.00,Wunderground v.1.15,2013-05-17 15:50:00,
2013-05-17 08:55:00,58.3,44.0,29.99,West,280,2.0,3.0,59,0.00,,,0.00,Wunderground v.1.15,2013-05-17 15:55:00,
2013-05-17 09:00:00,58.9,44.1,29.99,West,259,1.0,2.0,58,0.00,,,0.00,Wunderground v.1.15,2013-05-17 16:00:00,
2013-05-17 09:10:00,59.6,43.9,29.99,SW,229,2.0,5.0,56,0.00,,,0.00,Wunderground v.1.15,2013-05-17 16:10:00,
2013-05-17 09:15:00,59.8,44.1,29.99,WSW,248,2.0,5.0,56,0.00,,,0.00,Wunderground v.1.15,2013-05-17 16:15:00,
2013-05-17 09:20:00,60.2,43.5,29.99,WSW,248,1.0,3.0,54,0.00,,,0.00,Wunderground v.1.15,2013-05-17 16:20:00,
2013-05-17 09:30:00,61.2,43.9,29.99,West,271,2.0,2.0,53,0.00,,,0.00,Wunderground v.1.15,2013-05-17 16:30:00,
2013-05-17 09:35:00,61.5,43.7,29.99,West,276,1.0,2.0,52,0.00,,,0.00,Wunderground v.1.15,2013-05-17 16:35:00,
2013-05-17 09:40:00,62.0,43.7,29.99,SSE,153,1.0,1.0,51,0.00,,,0.00,Wunderground v.1.15,2013-05-17 16:40:00,
2013-05-17 09:50:00,63.2,43.7,29.98,NE,44,0.0,0.0,49,0.00,,,0.00,Wunderground v.1.15,2013-05-17 16:50:00,
2013-05-17 10:05:00,63.4,42.8,29.98,SSE,158,2.0,3.0,47,0.00,,,0.00,Wunderground v.1.15,2013-05-17 17:05:00,
2013-05-17 10:10:00,63.7,43.1,29.98,SSE,157,2.0,2.0,47,0.00,,,0.00,Wunderground v.1.15,2013-05-17 17:10:00,
2013-05-17 10:20:00,65.8,42.1,29.98,East,96,1.0,1.0,42,0.00,,,0.00,Wunderground v.1.15,2013-05-17 17:20:00,
2013-05-17 10:35:00,65.6,40.6,29.98,ESE,121,1.0,1.0,40,0.00,,,0.00,Wunderground v.1.15,2013-05-17 17:35:00,
2013-05-17 10:40:00,66.0,41.0,29.98,NW,311,1.0,3.0,40,0.00,,,0.00,Wunderground v.1.15,2013-05-17 17:40:00,
2013-05-17 10:50:00,66.0,36.1,29.98,NW,326,3.0,3.0,33,0.00,,,0.00,Wunderground v.1.15,2013-05-17 17:50:00,
2013-05-17 10:55:00,67.4,36.5,29.98,SW,226,2.0,4.0,32,0.00,,,0.00,Wunderground v.1.15,2013-05-17 17:55:00,
2013-05-17 11:00:00,68.4,34.9,29.98,SSW,203,1.0,1.0,29,0.00,,,0.00,Wunderground v.1.15,2013-05-17 18:00:00,
2013-05-17 11:10:00,68.3,33.9,29.98,ENE,69,2.0,2.0,28,0.00,,,0.00,Wunderground v.1.15,2013-05-17 18:10:00,
2013-05-17 11:15:00,67.4,34.9,29.98,East,98,2.0,2.0,30,0.00,,,0.00,Wunderground v.1.15,2013-05-17 18:15:00,
2013-05-17 11:20:00,67.6,35.0,29.98,ENE,78,3.0,3.0,30,0.00,,,0.00,Wunderground v.1.15,2013-05-17 18:20:00,
2013-05-17 11:30:00,69.6,36.8,29.98,NNW,333,1.0,1.0,30,0.00,,,0.00,Wunderground v.1.15,2013-05-17 18:30:00,
2013-05-17 11:35:00,69.4,35.7,29.98,SE,144,1.0,5.0,29,0.00,,,0.00,Wunderground v.1.15,2013-05-17 18:35:00,
2013-05-17 11:40:00,69.3,40.5,29.98,NNW,347,2.0,3.0,35,0.00,,,0.00,Wunderground v.1.15,2013-05-17 18:40:00,
2013-05-17 11:50:00,69.6,37.6,29.98,East,99,3.0,7.0,31,0.00,,,0.00,Wunderground v.1.15,2013-05-17 18:50:00,
2013-05-17 11:55:00,70.3,36.5,29.98,ESE,123,2.0,7.0,29,0.00,,,0.00,Wunderground v.1.15,2013-05-17 18:55:00,
2013-05-17 12:00:00,69.4,36.6,29.98,East,86,2.0,2.0,30,0.00,,,0.00,Wunderground v.1.15,2013-05-17 19:00:00,
2013-05-17 12:10:00,69.4,37.4,29.98,WNW,282,2.0,2.0,31,0.00,,,0.00,Wunderground v.1.15,2013-05-17 19:10:00,
2013-05-17 12:15:00,70.3,37.4,29.98,SW,225,2.0,2.0,30,0.00,,,0.00,Wunderground v.1.15,2013-05-17 19:15:00,
2013-05-17 12:20:00,70.8,36.1,29.98,West,268,3.0,3.0,28,0.00,,,0.00,Wunderground v.1.15,2013-05-17 19:20:00,
2013-05-17 12:25:00,71.1,37.2,29.98,SW,227,3.0,7.0,29,0.00,,,0.00,Wunderground v.1.15,2013-05-17 19:25:00,
2013-05-17 12:35:00,71.6,38.5,29.98,ESE,113,4.0,4.0,30,0.00,,,0.00,Wunderground v.1.15,2013-05-17 19:35:00,
2013-05-17 12:45:00,71.6,36.8,29.98,West,276,3.0,4.0,28,0.00,,,0.00,Wunderground v.1.15,2013-05-17 19:45:00,
2013-05-17 12:50:00,70.6,35.9,29.98,NW,314,4.0,4.0,28,0.00,,,0.00,Wunderground v.1.15,2013-05-17 19:50:00,
2013-05-17 13:00:00,70.8,35.1,29.97,NE,39,4.0,4.0,27,0.00,,,0.00,Wunderground v.1.15,2013-05-17 20:00:00,
2013-05-17 13:05:00,72.5,36.6,29.97,WNW,293,3.0,4.0,27,0.00,,,0.00,Wunderground v.1.15,2013-05-17 20:05:00,
2013-05-17 13:10:00,72.7,36.8,29.97,West,269,2.0,4.0,27,0.00,,,0.00,Wunderground v.1.15,2013-05-17 20:10:00,
2013-05-17 13:15:00,71.5,36.7,29.97,NNW,329,3.0,4.0,28,0.00,,,0.00,Wunderground v.1.15,2013-05-17 20:15:00,
2013-05-17 13:25:00,71.8,36.0,29.97,ENE,65,3.0,4.0,27,0.00,,,0.00,Wunderground v.1.15,2013-05-17 20:25:00,
2013-05-17 13:35:00,72.7,36.8,29.97,SE,136,3.0,7.0,27,0.00,,,0.00,Wunderground v.1.15,2013-05-17 20:35:00,
2013-05-17 13:45:00,72.3,36.4,29.96,SE,129,3.0,8.0,27,0.00,,,0.00,Wunderground v.1.15,2013-05-17 20:45:00,
2013-05-17 14:00:00,73.2,38.1,29.96,ENE,74,3.0,3.0,28,0.00,,,0.00,Wunderground v.1.15,2013-05-17 21:00:00,
2013-05-17 14:10:00,74.0,37.9,29.96,SSE,148,3.0,3.0,27,0.00,,,0.00,Wunderground v.1.15,2013-05-17 21:10:00,
2013-05-17 14:15:00,73.9,37.8,29.96,West,264,3.0,3.0,27,0.00,,,0.00,Wunderground v.1.15,2013-05-17 21:15:00,
2013-05-17 14:40:00,72.8,35.9,29.96,East,99,3.0,3.0,26,0.00,,,0.00,Wunderground v.1.15,2013-05-17 21:40:00,
2013-05-17 14:50:00,74.2,36.1,29.96,West,269,4.0,4.0,25,0.00,,,0.00,Wunderground v.1.15,2013-05-17 21:50:00,
2013-05-17 14:55:00,74.0,35.9,29.96,SW,219,2.0,4.0,25,0.00,,,0.00,Wunderground v.1.15,2013-05-17 21:55:00,
2013-05-17 15:00:00,74.6,36.4,29.95,NE,44,2.0,3.0,25,0.00,,,0.00,Wunderground v.1.15,2013-05-17 22:00:00,
2013-05-17 15:10:00,74.9,35.7,29.95,SE,126,4.0,4.0,24,0.00,,,0.00,Wunderground v.1.15,2013-05-17 22:10:00,
2013-05-17 15:15:00,75.1,36.9,29.95,SSE,163,5.0,6.0,25,0.00,,,0.00,Wunderground v.1.15,2013-05-17 22:15:00,
2013-05-17 15:20:00,75.4,37.1,29.95,WNW,292,5.0,6.0,25,0.00,,,0.00,Wunderground v.1.15,2013-05-17 22:20:00,
2013-05-17 15:30:00,75.3,39.0,29.95,WNW,288,4.0,7.0,27,0.00,,,0.00,Wunderground v.1.15,2013-05-17 22:30:00,
2013-05-17 15:35:00,74.9,38.7,29.95,NW,309,5.0,7.0,27,0.00,,,0.00,Wunderground v.1.15,2013-05-17 22:35:00,
2013-05-17 15:40:00,74.9,39.6,29.95,West,261,6.0,8.0,28,0.00,,,0.00,Wunderground v.1.15,2013-05-17 22:40:00,
2013-05-17 15:50:00,74.7,38.5,29.95,SW,234,4.0,4.0,27,0.00,,,0.00,Wunderground v.1.15,2013-05-17 22:50:00,
2013-05-17 15:55:00,74.4,39.2,29.95,SW,236,5.0,7.0,28,0.00,,,0.00,Wunderground v.1.15,2013-05-17 22:55:00,
2013-05-17 16:00:00,73.9,37.8,29.95,West,278,6.0,7.0,27,0.00,,,0.00,Wunderground v.1.15,2013-05-17 23:00:00,
2013-05-17 16:10:00,73.7,39.5,29.95,WNW,287,5.0,5.0,29,0.00,,,0.00,Wunderground v.1.15,2013-05-17 23:10:00,
2013-05-17 16:15:00,73.5,39.3,29.95,NNW,327,5.0,5.0,29,0.00,,,0.00,Wunderground v.1.15,2013-05-17 23:15:00,
2013-05-17 16:20:00,73.5,40.2,29.95,WNW,294,6.0,8.0,30,0.00,,,0.00,Wunderground v.1.15,2013-05-17 23:20:00,
2013-05-17 16:30:00,73.0,40.6,29.94,WNW,292,7.0,7.0,31,0.00,,,0.00,Wunderground v.1.15,2013-05-17 23:30:00,
2013-05-17 16:35:00,73.3,40.0,29.94,NW,306,7.0,7.0,30,0.00,,,0.00,Wunderground v.1.15,2013-05-17 23:35:00,
2013-05-17 16:40:00,73.5,41.0,29.94,NW,305,6.0,6.0,31,0.00,,,0.00,Wunderground v.1.15,2013-05-17 23:40:00,
2013-05-17 16:50:00,74.0,40.6,29.95,NW,320,5.0,6.0,30,0.00,,,0.00,Wunderground v.1.15,2013-05-17 23:50:00,
2013-05-17 16:55:00,73.9,39.6,29.95,SSW,211,5.0,6.0,29,0.00,,,0.00,Wunderground v.1.15,2013-05-17 23:55:00,
2013-05-17 17:05:00,73.9,39.6,29.95,West,281,5.0,7.0,29,0.00,,,0.00,Wunderground v.1.15,2013-05-18 00:05:00,
2013-05-17 17:15:00,73.9,39.6,29.94,SW,226,5.0,12.0,29,0.00,,,0.00,Wunderground v.1.15,2013-05-18 00:15:00,
2013-05-17 17:20:00,73.7,40.3,29.94,West,271,7.0,11.0,30,0.00,,,0.00,Wunderground v.1.15,2013-05-18 00:20:00,
2013-05-17 17:25:00,73.7,39.5,29.94,WSW,257,7.0,11.0,29,0.00,,,0.00,Wunderground v.1.15,2013-05-18 00:25:00,
2013-05-17 17:30:00,73.5,39.3,29.95,NW,309,6.0,6.0,29,0.00,,,0.00,Wunderground v.1.15,2013-05-18 00:30:00,
2013-05-17 17:40:00,73.5,39.3,29.95,WNW,300,5.0,5.0,29,0.00,,,0.00,Wunderground v.1.15,2013-05-18 00:40:00,
2013-05-17 17:45:00,73.7,39.5,29.94,WNW,286,5.0,5.0,29,0.00,,,0.00,Wunderground v.1.15,2013-05-18 00:45:00,
2013-05-17 17:55:00,73.0,40.6,29.94,NW,321,5.0,5.0,31,0.00,,,0.00,Wunderground v.1.15,2013-05-18 00:55:00,
2013-05-17 18:00:00,72.8,41.2,29.95,NNW,336,5.0,5.0,32,0.00,,,0.00,Wunderground v.1.15,2013-05-18 01:00:00,
2013-05-17 18:05:00,72.8,41.2,29.95,West,270,4.0,5.0,32,0.00,,,0.00,Wunderground v.1.15,2013-05-18 01:05:00,
2013-05-17 18:10:00,72.5,41.0,29.95,WSW,239,4.0,9.0,32,0.00,,,0.00,Wunderground v.1.15,2013-05-18 01:10:00,
2013-05-17 18:20:00,72.5,41.0,29.95,West,281,5.0,9.0,32,0.00,,,0.00,Wunderground v.1.15,2013-05-18 01:20:00,
2013-05-17 18:25:00,72.0,41.3,29.95,WSW,252,6.0,9.0,33,0.00,,,0.00,Wunderground v.1.15,2013-05-18 01:25:00,
2013-05-17 18:30:00,71.8,41.9,29.96,West,279,5.0,8.0,34,0.00,,,0.00,Wunderground v.1.15,2013-05-18 01:30:00,
2013-05-17 18:40:00,71.5,41.6,29.96,WNW,301,5.0,5.0,34,0.00,,,0.00,Wunderground v.1.15,2013-05-18 01:40:00,
2013-05-17 18:45:00,71.3,41.5,29.96,NW,318,4.0,5.0,34,0.00,,,0.00,Wunderground v.1.15,2013-05-18 01:45:00,
2013-05-17 18:50:00,70.9,41.1,29.96,WSW,252,4.0,8.0,34,0.00,,,0.00,Wunderground v.1.15,2013-05-18 01:50:00,
2013-05-17 18:55:00,70.6,40.9,29.96,NW,321,5.0,8.0,34,0.00,,,0.00,Wunderground v.1.15,2013-05-18 01:55:00,
2013-05-17 19:00:00,70.4,41.4,29.96,West,276,5.0,7.0,35,0.00,,,0.00,Wunderground v.1.15,2013-05-18 02:00:00,
2013-05-17 19:10:00,70.1,41.2,29.96,WNW,294,4.0,4.0,35,0.00,,,0.00,Wunderground v.1.15,2013-05-18 02:10:00,
2013-05-17 19:15:00,69.9,41.7,29.97,SSW,209,3.0,4.0,36,0.00,,,0.00,Wunderground v.1.15,2013-05-18 02:15:00,
2013-05-17 19:20:00,69.8,41.6,29.97,NW,317,2.0,3.0,36,0.00,,,0.00,Wunderground v.1.15,2013-05-18 02:20:00,
2013-05-17 19:30:00,69.3,41.9,29.97,WNW,302,3.0,4.0,37,0.00,,,0.00,Wunderground v.1.15,2013-05-18 02:30:00,
2013-05-17 19:35:00,68.8,42.1,29.97,West,262,3.0,4.0,38,0.00,,,0.00,Wunderground v.1.15,2013-05-18 02:35:00,
2013-05-17 19:40:00,68.4,42.5,29.97,West,260,3.0,6.0,39,0.00,,,0.00,Wunderground v.1.15,2013-05-18 02:40:00,
2013-05-17 19:45:00,67.9,42.0,29.98,NW,308,3.0,6.0,39,0.00,,,0.00,Wunderground v.1.15,2013-05-18 02:45:00,
2013-05-17 19:55:00,67.3,42.1,29.98,NNW,338,2.0,3.0,40,0.00,,,0.00,Wunderground v.1.15,2013-05-18 02:55:00,
2013-05-17 20:00:00,66.9,41.8,29.99,WNW,291,2.0,3.0,40,0.00,,,0.00,Wunderground v.1.15,2013-05-18 03:00:00,
2013-05-17 20:05:00,66.8,42.3,29.99,NW,307,2.0,4.0,41,0.00,,,0.00,Wunderground v.1.15,2013-05-18 03:05:00,
2013-05-17 20:15:00,66.1,42.3,29.99,West,271,1.0,2.0,42,0.00,,,0.00,Wunderground v.1.15,2013-05-18 03:15:00,
2013-05-17 20:20:00,65.6,41.9,29.99,West,271,0.0,0.0,42,0.00,,,0.00,Wunderground v.1.15,2013-05-18 03:20:00,
2013-05-17 20:25:00,65.2,42.1,29.99,West,271,0.0,0.0,43,0.00,,,0.00,Wunderground v.1.15,2013-05-18 03:25:00,
2013-05-17 20:30:00,64.7,42.3,29.99,West,271,0.0,0.0,44,0.00,,,0.00,Wunderground v.1.15,2013-05-18 03:30:00,
2013-05-17 20:40:00,63.5,41.8,29.99,West,271,0.0,0.0,45,0.00,,,0.00,Wunderground v.1.15,2013-05-18 03:40:00,
2013-05-17 20:45:00,62.9,42.4,30.00,West,271,0.0,0.0,47,0.00,,,0.00,Wunderground v.1.15,2013-05-18 03:45:00,
2013-05-17 20:50:00,62.3,42.3,30.00,West,271,0.0,0.0,48,0.00,,,0.00,Wunderground v.1.15,2013-05-18 03:50:00,
2013-05-17 21:00:00,60.9,42.1,30.01,West,271,0.0,0.0,50,0.00,,,0.00,Wunderground v.1.15,2013-05-18 04:00:00,
2013-05-17 21:05:00,60.1,41.9,30.01,West,271,0.0,0.0,51,0.00,,,0.00,Wunderground v.1.15,2013-05-18 04:05:00,
2013-05-17 21:10:00,58.9,42.3,30.01,West,271,1.0,2.0,54,0.00,,,0.00,Wunderground v.1.15,2013-05-18 04:10:00,
2013-05-17 21:15:00,58.1,42.0,30.01,West,271,2.0,2.0,55,0.00,,,0.00,Wunderground v.1.15,2013-05-18 04:15:00,
2013-05-17 21:25:00,57.0,41.4,30.01,West,271,0.0,2.0,56,0.00,,,0.00,Wunderground v.1.15,2013-05-18 04:25:00,
2013-05-17 21:30:00,56.7,41.6,30.02,West,271,0.0,2.0,57,0.00,,,0.00,Wunderground v.1.15,2013-05-18 04:30:00,
2013-05-17 21:35:00,56.3,41.3,30.02,West,271,0.0,2.0,57,0.00,,,0.00,Wunderground v.1.15,2013-05-18 04:35:00,
2013-05-17 21:40:00,55.9,41.3,30.02,West,271,1.0,1.0,58,0.00,,,0.00,Wunderground v.1.15,2013-05-18 04:40:00,
2013-05-17 21:50:00,55.1,41.0,30.02,West,271,0.0,0.0,59,0.00,,,0.00,Wunderground v.1.15,2013-05-18 04:50:00,
2013-05-17 21:55:00,54.7,40.6,30.02,West,271,0.0,2.0,59,0.00,,,0.00,Wunderground v.1.15,2013-05-18 04:55:00,
2013-05-17 22:00:00,54.4,40.4,30.02,West,271,0.0,0.0,59,0.00,,,0.00,Wunderground v.1.15,2013-05-18 05:00:00,
2013-05-17 22:05:00,54.2,40.6,30.02,West,271,0.0,0.0,60,0.00,,,0.00,Wunderground v.1.15,2013-05-18 05:05:00,
2013-05-17 22:15:00,53.3,40.2,30.03,West,271,1.0,3.0,61,0.00,,,0.00,Wunderground v.1.15,2013-05-18 05:15:00,
2013-05-17 22:20:00,53.1,40.0,30.03,West,271,2.0,2.0,61,0.00,,,0.00,Wunderground v.1.15,2013-05-18 05:20:00,
2013-05-17 22:25:00,52.8,40.1,30.03,West,271,1.0,2.0,62,0.00,,,0.00,Wunderground v.1.15,2013-05-18 05:25:00,
2013-05-17 22:30:00,52.6,39.9,30.03,West,271,0.0,0.0,62,0.00,,,0.00,Wunderground v.1.15,2013-05-18 05:30:00,
2013-05-17 22:40:00,52.2,40.0,30.03,West,271,2.0,3.0,63,0.00,,,0.00,Wunderground v.1.15,2013-05-18 05:40:00,
2013-05-17 22:45:00,51.6,39.8,30.03,West,271,2.0,3.0,64,0.00,,,0.00,Wunderground v.1.15,2013-05-18 05:45:00,
2013-05-17 22:50:00,51.4,39.6,30.03,West,271,1.0,1.0,64,0.00,,,0.00,Wunderground v.1.15,2013-05-18 05:50:00,
2013-05-17 23:00:00,51.1,39.3,30.04,West,271,0.0,0.0,64,0.00,,,0.00,Wunderground v.1.15,2013-05-18 06:00:00,
2013-05-17 23:05:00,50.8,39.5,30.04,West,271,0.0,0.0,65,0.00,,,0.00,Wunderground v.1.15,2013-05-18 06:05:00,
2013-05-17 23:10:00,50.5,39.2,30.04,West,271,0.0,0.0,65,0.00,,,0.00,Wunderground v.1.15,2013-05-18 06:10:00,
2013-05-17 23:15:00,50.1,38.8,30.04,West,271,0.0,0.0,65,0.00,,,0.00,Wunderground v.1.15,2013-05-18 06:15:00,
2013-05-17 23:20:00,49.8,38.9,30.04,West,271,0.0,0.0,66,0.00,,,0.00,Wunderground v.1.15,2013-05-18 06:20:00,
2013-05-17 23:30:00,49.5,39.0,30.04,West,271,0.0,0.0,67,0.00,,,0.00,Wunderground v.1.15,2013-05-18 06:30:00,
2013-05-17 23:35:00,49.4,38.9,30.04,West,271,0.0,0.0,67,0.00,,,0.00,Wunderground v.1.15,2013-05-18 06:35:00,
2013-05-17 23:40:00,49.4,38.9,30.04,West,271,0.0,0.0,67,0.00,,,0.00,Wunderground v.1.15,2013-05-18 06:40:00,
2013-05-17 23:50:00,48.9,38.4,30.04,West,271,0.0,0.0,67,0.00,,,0.00,Wunderground v.1.15,2013-05-18 06:50:00,
2013-05-17 23:55:00,48.6,38.5,30.04,West,271,0.0,1.0,68,0.00,,,0.00,Wunderground v.1.15,2013-05-18 06:55:00,